Location: Hurstbourne Priors
(51.2000°N, 1.3667°W)
Time: 04:07:33
(UTC+00:00)

X-37B - Visible Passes

Search period start: 26 February 2021 00:00
Search period end: 08 March 2021 00:00
Orbit: 383 x 391 km, 45.0° (Epoch: 10 February)

Date Brightness Start Highest point End Pass type
(mag) Time Alt. Az. Time Alt. Az. Time Alt. Az.
26 Feb 3.8 04:07:50 11° ESE 04:07:50 11° ESE 04:07:59 10° ESE visible
26 Feb 2.4 05:40:06 17° SW 05:41:22 21° SSW 05:43:49 10° SE visible
27 Feb 2.7 04:44:21 20° SSE 04:44:21 20° SSE 04:45:50 10° SE visible
27 Feb 3.0 06:17:53 10° SW 06:19:09 12° SSW 06:20:23 10° S visible
28 Feb 2.6 05:20:56 16° SSW 05:21:02 16° SSW 05:23:07 10° SSE visible
01 Mar 3.6 04:25:18 10° SE 04:25:18 10° SE 04:25:21 10° SE visible
